Location: Asheville, NC
(35.6000°N, 82.5500°W)
Time: 19:51:54
(UTC-04:00)

Vanguard 2 Rocket - Pass Details

Date: 09 March 2018
Orbit: 553 x 3328 km, 32.9° (Epoch: 19 June)

Event Time Altitude Azimuth Distance (km) Brightness Sun altitude
Rises 00:46:46 0° 276° (W) 4,596 - -58.9°
Reaches altitude 10° 00:49:40 10° 268° (W) 3,945 - -58.8°
Maximum altitude 00:59:29 36° 206° (SSW) 3,281 - -58.6°
Drops below altitude 10° 01:14:28 10° 149° (SSE) 5,969 - -57.9°
Sets 01:20:14 0° 142° (SE) 7,202 - -57.6°
